Location: Coche
(10.4506°N, 66.9257°W)
Time: 13:40:13
(UTC+00:00)

Cosmos 1536 - Pass Details

Date: 08 December 2021
Orbit: 539 x 557 km, 82.5° (Epoch: 19 January)

Event Time Altitude Azimuth Distance (km) Brightness Sun altitude
Exits shadow 23:46:01 - 341° (NNW) 2,200 5.9 -23.8°
Reaches altitude 10° 23:47:01 10° 337° (NNW) 1,808 5.5 -24.0°
Maximum altitude 23:50:44 40° 267° (W) 813 4.1 -24.8°
Drops below altitude 10° 23:54:27 10° 197° (SSW) 1,799 5.9 -25.7°
Sets 23:56:41 0° 190° (S) 2,688 6.7 -26.2°
